Weather History for Danville, VA

Change the Weather History Date:

Wednesday, January 2, 2013

  Actual Average Record
Temperature  
Mean Temperature 43 °F 38 °F  
Max Temperature 49 °F 47 °F 77 °F (1952)
Min Temperature 36 °F 29 °F 15 °F (1984)
Degree Days  
Heating Degree Days 22 27  
Month to date heating degree days 43 54  
Since 1 July heating degree days 1444 1536  
Cooling Degree Days 0 0  
Month to date cooling degree days 0 0  
Year to date cooling degree days 0 0  
Moisture  
Dew Point 36 °F    
Average Humidity 71    
Maximum Humidity 89    
Minimum Humidity 53    
Precipitation  
Precipitation 0.06 in 0.10 in 0.85 in (1979)
Month to date precipitation 0.18 0.20  
Year to date precipitation 0.18 0.20  
Snow  
Snow 0.00 in - - ()
Month to date snowfall 0.0  
Since 1 July snowfall 0.0  
Snow Depth 0.00 in    
Sea Level Pressure  
Sea Level Pressure 30.05 in    
Wind  
Wind Speed 4 mph (NNE)    
Max Wind Speed 12 mph    
Max Gust Speed 16 mph    
Visibility 10 miles    
Events Rain    
T = Trace of Precipitation, MM = Missing Value Source: NWS Daily Summary

Daily Weather History Graph

Daily Weather History Graph

Search for Another Location

Airport:

Trip Planner

Search our weather history database for the weather conditions in past years. The results will help you decide how hot, cold, wet, or windy it might be!

Date:

Astronomy

Jan. 02, 2013 Rise Set
Actual Time 7:29 AM EST 5:13 PM EST
Civil Twilight 7:01 AM EST 5:42 PM EST
Nautical Twilight 6:28 AM EST 6:14 PM EST
Astronomical Twilight 5:57 AM EST 6:45 PM EST
Moon 10:34 PM EST (1/2) 10:19 AM EST (1/2)
Length of Visible Light 10h 41m
Length of Day
9h 43m
Waning Gibbous, 75% of the Moon is Illuminated
Jan 2
Waning Gibbous
Jan 4
Last Quarter
Jan 11
New
Jan 18
First Quarter
Jan 26
Full

Hourly Weather History & Observations

Time (EST) Temp. Windchill Dew Point Humidity Pressure Visibility Wind Dir Wind Speed Gust Speed Precip Events Conditions
12:53 AM 46.0 °F - 43.0 °F 89% 29.94 in 7.0 mi Calm Calm - 0.01 in Rain Light Rain
1:16 AM 44.6 °F 41.4 °F 42.8 °F 93% 29.95 in 7.0 mi North 5.8 mph - 0.01 in Rain Light Rain
1:25 AM 44.6 °F 41.4 °F 42.8 °F 93% 29.94 in 7.0 mi NNE 5.8 mph - 0.01 in Rain Light Rain
1:53 AM 45.0 °F 41.2 °F 41.0 °F 86% 29.94 in 10.0 mi NE 6.9 mph - 0.02 in Rain Light Rain
2:07 AM 44.6 °F 41.4 °F 41.0 °F 87% 29.96 in 10.0 mi NNE 5.8 mph - 0.00 in Rain Light Rain
2:53 AM 44.1 °F 40.1 °F 39.9 °F 85% 29.95 in 10.0 mi NNE 6.9 mph - 0.02 in   Overcast
4:53 AM 42.1 °F 39.2 °F 39.0 °F 89% 29.97 in 8.0 mi NE 4.6 mph - 0.02 in   Overcast
5:05 AM 42.8 °F 41.1 °F 39.2 °F 87% 29.99 in 10.0 mi NNE 3.5 mph - N/A   Overcast
5:53 AM 42.1 °F - 39.0 °F 89% 29.99 in 10.0 mi Calm Calm - 0.02 in   Overcast
6:43 AM 41.0 °F - 39.2 °F 93% 30.01 in 10.0 mi Calm Calm - 0.01 in   Overcast
6:53 AM 42.1 °F - 39.0 °F 89% 30.01 in 10.0 mi Calm Calm - 0.01 in   Overcast
7:04 AM 42.8 °F 41.1 °F 39.2 °F 87% 30.02 in 10.0 mi NNW 3.5 mph - 0.01 in   Overcast
7:53 AM 42.1 °F 39.2 °F 37.9 °F 85% 30.04 in 10.0 mi North 4.6 mph - 0.02 in   Overcast
8:00 AM 42.8 °F 40.1 °F 37.4 °F 81% 30.05 in 10.0 mi North 4.6 mph - N/A   Overcast
8:14 AM 42.8 °F 40.1 °F 39.2 °F 87% 30.06 in 10.0 mi North 4.6 mph - 0.01 in   Overcast
8:35 AM 42.8 °F 38.0 °F 37.4 °F 81% 30.08 in 10.0 mi NNE 8.1 mph - 0.01 in   Overcast
8:53 AM 42.1 °F 37.7 °F 37.9 °F 85% 30.07 in 10.0 mi NNE 6.9 mph - 0.02 in   Overcast
9:05 AM 41.0 °F 35.2 °F 37.4 °F 87% 30.09 in 10.0 mi NE 9.2 mph - N/A   Overcast
10:22 AM 41.0 °F 37.1 °F 37.4 °F 87% 30.10 in 10.0 mi ENE 5.8 mph - 0.01 in   Scattered Clouds
10:53 AM 41.0 °F 38.0 °F 37.0 °F 86% 30.10 in 10.0 mi NE 4.6 mph - 0.01 in   Scattered Clouds
11:40 AM 44.6 °F 43.1 °F 35.6 °F 71% 30.10 in 10.0 mi ENE 3.5 mph - 0.02 in   Mostly Cloudy
11:53 AM 44.1 °F 40.8 °F 35.1 °F 71% 30.09 in 10.0 mi North 5.8 mph - 0.02 in   Mostly Cloudy
12:33 PM 46.4 °F 45.2 °F 33.8 °F 62% 30.07 in 10.0 mi Variable 3.5 mph - 0.01 in   Overcast
12:53 PM 48.0 °F - 33.1 °F 56% 30.06 in 10.0 mi North 8.1 mph - 0.02 in   Mostly Cloudy
1:53 PM 46.9 °F - 30.9 °F 54% 30.05 in 10.0 mi NW 6.9 mph - 0.01 in   Mostly Cloudy
2:53 PM 48.0 °F - 32.0 °F 54% 30.06 in 10.0 mi Variable 3.5 mph - 0.01 in   Overcast
3:53 PM 46.0 °F 43.9 °F 30.0 °F 54% 30.08 in 10.0 mi NNE 4.6 mph - 0.01 in   Partly Cloudy
4:53 PM 45.0 °F 41.2 °F 28.0 °F 52% 30.10 in 10.0 mi NNE 6.9 mph - 0.01 in   Clear
5:53 PM 42.1 °F 39.2 °F 28.0 °F 58% 30.11 in 10.0 mi NNE 4.6 mph - 0.01 in   Clear
6:53 PM 39.9 °F - 30.9 °F 70% 30.13 in 10.0 mi Calm Calm - 0.01 in   Clear
7:53 PM 39.0 °F - 30.9 °F 73% 30.16 in 10.0 mi Calm Calm - N/A   Clear
8:53 PM 37.9 °F - 30.9 °F 76% 30.14 in 10.0 mi Calm Calm - 0.01 in   Clear
9:53 PM 37.0 °F - 30.9 °F 79% 30.17 in 10.0 mi Calm Calm - N/A   Clear
10:53 PM 36.0 °F - 32.0 °F 86% 30.17 in 10.0 mi Calm Calm - N/A   Clear
11:53 PM 37.0 °F - 32.0 °F 82% 30.17 in 10.0 mi Calm Calm - N/A   Overcast